• Processing (Info)

  • MPEC 2006-S69 : 2006 SP131

    The following Minor Planet Electronic Circular may be linked-to from your own Web pages, but must not otherwise be redistributed electronically.

    A form allowing access to any MPEC is at the bottom of this page.


    Read MPEC 2006-S68 Read MPEC 2006-S70


    M.P.E.C. 2006-S69                                Issued 2006 Sept. 27, 13:36 UT
    
         The Minor Planet Electronic Circulars contain information on unusual
             minor planets and routine data on comets.  They are published
       on behalf of Commission 20 of the International Astronomical Union by the
              Minor Planet Center, Smithsonian Astrophysical Observatory,
                              Cambridge, MA 02138, U.S.A.
    
                      Supported in part by the Brinson Foundation
                      Supported in part by the TABASGO Foundation
                 Prepared using the Tamkin Foundation Computer Network
    
                                  MPC@CFA.HARVARD.EDU
              URL http://cfa-www.harvard.edu/iau/mpc.html  ISSN 1523-6714
    
                                      2006 SP131
    
    Observations:
         K06SD1P* C2006 09 26.30045 00 16 09.91 +00 12 06.9          20.3 V ES069G96
         K06SD1P  C2006 09 26.30786 00 16 04.33 +00 13 28.7          20.1 V ES069G96
         K06SD1P  C2006 09 26.31524 00 15 58.78 +00 14 50.5          20.0 V ES069G96
         K06SD1P  C2006 09 26.32277 00 15 53.13 +00 16 14.3          19.9 V ES069G96
         K06SD1P  C2006 09 26.35988 00 15 25.16 +00 23 07.0          20.1 V ES069G96
         K06SD1P  C2006 09 26.36278 00 15 22.96 +00 23 39.1          20.2 V ES069G96
         K06SD1P  C2006 09 26.36558 00 15 20.84 +00 24 10.2          20.1 V ES069G96
         K06SD1P  C2006 09 26.36838 00 15 18.75 +00 24 41.8          20.1 V ES069G96
         K06SD1P  C2006 09 26.95625 00 08 04.31 +02 17 50.2                 ES069J95
         K06SD1P  C2006 09 26.96167 00 07 59.99 +02 18 56.5                 ES069J95
         K06SD1P  C2006 09 26.96706 00 07 55.51 +02 19 58.9          20.1 R ES069J95
         K06SD1P  C2006 09 27.12643 00 05 54.47 +02 52 37.7          19.2 R ES069734
         K06SD1P  C2006 09 27.13255 00 05 49.36 +02 53 52.3          19.7 R ES069734
         K06SD1P  C2006 09 27.13869 00 05 44.34 +02 55 07.9          19.9 R ES069734
         K06SD1P  C2006 09 27.19005 00 05 03.54 +03 05 55.2          19.8 R ES069651
         K06SD1P  C2006 09 27.19264 00 05 01.35 +03 06 27.6          19.8 R ES069651
         K06SD1P  C2006 09 27.19523 00 04 59.18 +03 07 00.1          19.8 R ES069651
         K06SD1P  C2006 09 27.23865 00 04 22.69 +03 15 59.4          20.1 V ES069G96
         K06SD1P  C2006 09 27.24329 00 04 18.76 +03 16 57.4          20.0 V ES069G96
         K06SD1P  C2006 09 27.24793 00 04 14.84 +03 17 55.7          19.9 V ES069G96
         K06SD1P  C2006 09 27.25257 00 04 10.92 +03 18 53.6          19.8 V ES069G96
    
    Observer details:
    651 Grasslands Observatory, Tucson.  Observer J. E. McGaha.  0.62-m f/5.1
        reflector + CCD.
    734 Farpoint Observatory.  Observer D. Tibbets.  0.7-m reflector + CCD.
    G96 Mt. Lemmon Survey.  Observers E. C. Beshore, R. A. Kowalski.  Measurers
        E. C. Beshore, E. J. Christensen, G. J. Garradd, A. R. Gibbs, A. D. Grauer,
        R. E. Hill, R. A. Kowalski, S. M. Larson, R. H. McNaught.  1.5-m reflector
        + CCD.
    J95 Great Shefford.  Observer P. Birtwhistle.  0.40-m f/6.0 Schmidt-Cassegrain
        + CCD.
    
    Orbital elements:
    2006 SP131                                               Earth MOID = 0.0326 AU
    Epoch 2006 Sept. 22.0 TT = JDT 2454000.5                MPC
    M 290.25635              (2000.0)            P               Q
    n   0.83410664     Peri.  101.17814     -0.24686001     -0.96885212
    a   1.1176908      Node     3.31321     +0.70221547     -0.19281463
    e   0.3049461      Incl.   19.86551     +0.66779755     -0.15539655
    P   1.18           H   25.3           G   0.15           U   8
    Residuals in seconds of arc
    060926 G96  0.4-  0.2+    060926 G96  0.6+  0.0     060927 651  0.7+  0.8-
    060926 G96  0.5-  0.1-    060926 J95  0.2+  0.3+    060927 651  0.3+  0.5-
    060926 G96  0.4-  0.1-    060926 J95  0.9+  1.3+    060927 651  0.1+  0.2-
    060926 G96  0.1-  0.2+    060926 J95  1.2-  1.2-    060927 G96  0.2-  0.2+
    060926 G96  0.4+  0.0     060927 734  1.0+  0.0     060927 G96  0.4-  0.3+
    060926 G96  0.3+  0.2-    060927 734  0.4-  0.8-    060927 G96  0.3-  0.6+
    060926 G96  0.2+  0.4-    060927 734  0.0   0.8-    060927 G96  0.2-  0.6+
    
    Ephemeris:
    2006 SP131               a,e,i = 1.12, 0.30, 20                  q = 0.7769
    Date    TT    R. A. (2000) Decl.     Delta      r     Elong.  Phase     V
    2006 09 22    00 55.30   -09 48.4    0.101    1.101   162.4    16.0    21.4
    2006 09 24    00 39.73   -05 52.1    0.0891   1.091   168.9    10.2    20.9
    2006 09 26    00 19.66   -00 41.3    0.0781   1.081   177.0     2.8    20.2
    2006 09 28    23 53.63   +06 02.3    0.0689   1.071   172.8     6.7    20.1
    2006 09 30    23 19.87   +14 23.1    0.0621   1.060   160.2    18.6    20.3
    2006 10 02    22 36.91   +23 45.7    0.0586   1.050   145.7    32.5    20.6
    2006 10 04    21 44.92   +32 42.2    0.0588   1.040   130.4    47.1    21.0
    2006 10 06    20 47.48   +39 35.4    0.0626   1.029   116.3    60.6    21.5
    2006 10 08    19 51.13   +43 47.4    0.0694   1.019   104.4    71.9    22.1
    2006 10 10    19 01.67   +45 46.0    0.0783   1.008    94.8    80.8    22.6
    2006 10 12    18 21.37   +46 20.2    0.0886   0.998    87.3    87.6    23.1
    
    Timothy B. Spahr             (C) Copyright 2006 MPC           M.P.E.C. 2006-S69
    

    Read MPEC 2006-S68 Read MPEC 2006-S70


    MPEC number:

    Enter an MPEC number in one of the following forms:

    • 1997-B01 (the full form)
    • J97B01 (the packed version of the full form)
    • B01 (the abbreviated form)